Location: Leiter
(44.7178°N, 106.2687°W)
Time: 13:08:49
(UTC+00:00)

X-37B - Pass Details

Date: 26 January 2022
Orbit: 329 x 342 km, 45.0° (Epoch: 18 May)

Event Time Altitude Azimuth Distance (km) Brightness Sun altitude
Rises 02:05:45 0° 219° (SW) 2,104 5.0 -21.5°
Reaches altitude 10° 02:08:02 10° 201° (SSW) 1,268 3.5 -21.9°
Enters shadow 02:08:22 12° 196° (SSW) 1,166 3.2 -22.0°
